TimeEDT,TemperatureF,Dew PointF,Humidity,Sea Level PressureIn,VisibilityMPH,Wind Direction,Wind SpeedMPH,Gust SpeedMPH,PrecipitationIn,Events,Conditions,WindDirDegrees,DateUTC
12:53 AM,26.1,17.1,69,30.12,10.0,Calm,Calm,-,N/A,,Clear,0,2014-03-25 04:53:00
1:53 AM,26.1,18.0,71,30.09,10.0,Calm,Calm,-,N/A,,Clear,0,2014-03-25 05:53:00
2:53 AM,26.1,18.0,71,30.09,10.0,Calm,Calm,-,N/A,,Clear,0,2014-03-25 06:53:00
3:53 AM,26.1,17.1,69,30.07,10.0,Calm,Calm,-,N/A,,Overcast,0,2014-03-25 07:53:00
4:53 AM,26.1,19.9,78,30.04,10.0,Calm,Calm,-,N/A,,Mostly Cloudy,0,2014-03-25 08:53:00
5:53 AM,26.1,18.0,71,30.03,10.0,Calm,Calm,-,N/A,,Overcast,0,2014-03-25 09:53:00
6:53 AM,26.1,21.0,81,30.02,10.0,Calm,Calm,-,N/A,,Overcast,0,2014-03-25 10:53:00
7:53 AM,26.1,19.9,78,30.01,10.0,Calm,Calm,-,N/A,,Overcast,0,2014-03-25 11:53:00
8:53 AM,28.9,18.0,64,30.01,10.0,North,3.5,-,N/A,,Overcast,350,2014-03-25 12:53:00
9:53 AM,30.9,16.0,54,30.01,10.0,Calm,Calm,-,N/A,,Overcast,0,2014-03-25 13:53:00
10:53 AM,34.0,16.0,48,30.01,10.0,SSW,8.1,-,N/A,,Overcast,210,2014-03-25 14:53:00
11:53 AM,35.1,17.1,48,30.00,10.0,West,5.8,-,N/A,,Overcast,270,2014-03-25 15:53:00
12:53 PM,36.0,15.1,43,29.99,10.0,West,9.2,-,N/A,,Overcast,270,2014-03-25 16:53:00
1:53 PM,36.0,16.0,44,29.98,10.0,WNW,9.2,-,N/A,,Overcast,290,2014-03-25 17:53:00
2:53 PM,37.9,16.0,41,29.96,10.0,West,12.7,17.3,N/A,,Overcast,270,2014-03-25 18:53:00
3:53 PM,36.0,19.0,50,29.95,10.0,WSW,11.5,20.7,N/A,,Mostly Cloudy,250,2014-03-25 19:53:00
4:29 PM,32.0,24.1,73,29.95,2.0,WNW,20.7,41.4,0.00,Snow,Light Snow,300,2014-03-25 20:29:00
4:33 PM,30.9,25.0,79,29.96,1.0,NW,23.0,41.4,0.00,Snow,Light Snow,310,2014-03-25 20:33:00
4:38 PM,30.0,26.1,85,29.96,0.8,NW,15.0,31.1,0.00,Snow,Light Snow,310,2014-03-25 20:38:00
4:43 PM,28.9,25.0,85,29.96,0.8,NW,20.7,28.8,0.00,Snow,Light Snow,320,2014-03-25 20:43:00
4:53 PM,30.0,26.1,85,30.00,0.8,NW,16.1,-,0.00,Snow,Light Snow,320,2014-03-25 20:53:00
4:56 PM,30.0,26.1,85,29.97,1.0,NNW,16.1,-,0.00,Snow,Light Snow,330,2014-03-25 20:56:00
5:04 PM,30.0,25.0,82,29.97,1.5,NNW,15.0,23.0,0.00,Snow,Light Snow,330,2014-03-25 21:04:00
5:16 PM,30.9,25.0,79,29.97,2.5,NW,12.7,21.9,0.00,Snow,Light Snow,320,2014-03-25 21:16:00
5:20 PM,30.9,25.0,79,29.97,7.0,NW,17.3,23.0,0.00,,Overcast,320,2014-03-25 21:20:00
5:36 PM,30.9,23.0,72,29.98,10.0,NW,13.8,23.0,0.00,,Mostly Cloudy,320,2014-03-25 21:36:00
5:46 PM,32.0,23.0,69,29.98,10.0,NW,13.8,-,0.00,,Mostly Cloudy,320,2014-03-25 21:46:00
5:53 PM,33.1,21.9,64,30.01,10.0,NW,12.7,20.7,0.00,,Mostly Cloudy,310,2014-03-25 21:53:00
6:04 PM,32.0,21.9,66,29.98,10.0,NW,15.0,21.9,N/A,,Mostly Cloudy,310,2014-03-25 22:04:00
6:18 PM,30.0,23.0,75,30.00,2.0,NW,19.6,25.3,0.00,Snow,Light Snow,320,2014-03-25 22:18:00
6:27 PM,30.0,21.0,69,30.00,3.0,NW,12.7,25.3,0.00,Snow,Light Snow,310,2014-03-25 22:27:00
6:53 PM,30.0,19.9,66,30.04,10.0,NW,9.2,-,0.00,,Mostly Cloudy,310,2014-03-25 22:53:00
7:53 PM,30.0,17.1,59,30.06,10.0,NW,9.2,19.6,0.00,,Overcast,310,2014-03-25 23:53:00
8:53 PM,28.0,15.1,58,30.09,10.0,WNW,9.2,-,N/A,,Clear,300,2014-03-26 00:53:00
9:53 PM,28.0,14.0,56,30.11,10.0,NW,10.4,-,N/A,,Overcast,320,2014-03-26 01:53:00
10:53 PM,26.1,15.1,63,30.14,6.0,NW,15.0,25.3,0.00,Snow,Light Snow,320,2014-03-26 02:53:00
11:53 PM,25.0,10.9,55,30.16,10.0,NW,15.0,24.2,0.00,,Mostly Cloudy,320,2014-03-26 03:53:00